This is the latest recevied weather packets stored in our database for station/object KC5DAQ-29. If no packets are shown the sender has not sent any weather packets the latest 1 day(s).
| Time | Temp. | Humidity | Pressure | Rain* | Wind** | Luminosity | Snow |
|---|---|---|---|---|---|---|---|
| 1778020260 | 27.78° C | 100% | 1004.3 hPa | 0 mm | 1.79 m/s, 178° | 273 W/m² | - |
| 1778020199 | 27.78° C | 100% | 1004.4 hPa | 0 mm | 2.24 m/s, 172° | 273 W/m² | - |
| 1778020140 | 27.78° C | 100% | 1004.4 hPa | 0 mm | 2.24 m/s, 176° | 223 W/m² | - |
| 1778020079 | 28.33° C | 100% | 1004.4 hPa | 0 mm | 3.13 m/s, 169° | 223 W/m² | - |
| 1778020018 | 28.33° C | 100% | 1004.3 hPa | 0 mm | 2.68 m/s, 175° | 223 W/m² | - |
| 1778019958 | 28.33° C | 100% | 1004.4 hPa | 0 mm | 1.79 m/s, 166° | 223 W/m² | - |
| 1778019899 | 28.33° C | 100% | 1004.4 hPa | 0 mm | 2.24 m/s, 180° | 223 W/m² | - |
| 1778019839 | 28.33° C | 100% | 1004.3 hPa | 0 mm | 2.24 m/s, 158° | 202 W/m² | - |
| 1778019779 | 28.33° C | 100% | 1004.3 hPa | 0 mm | 2.24 m/s, 164° | 202 W/m² | - |
| 1778019718 | 28.33° C | 100% | 1004.4 hPa | 0 mm | 2.24 m/s, 164° | 253 W/m² | - |
| 1778019660 | 28.33° C | 100% | 1004.3 hPa | 0 mm | 1.79 m/s, 171° | 234 W/m² | - |
| 1778019599 | 28.33° C | 100% | 1004.4 hPa | 0 mm | 1.34 m/s, 154° | 234 W/m² | - |
| 1778019539 | 28.33° C | 100% | 1004.3 hPa | 0 mm | 1.79 m/s, 154° | 234 W/m² | - |
| 1778019480 | 28.33° C | 100% | 1004.3 hPa | 0 mm | 1.79 m/s, 162° | 193 W/m² | - |
| 1778019421 | 28.33° C | 100% | 1004.3 hPa | 0 mm | 1.79 m/s, 189° | 181 W/m² | - |
| 1778019359 | 28.33° C | 100% | 1004.4 hPa | 0 mm | 1.79 m/s, 224° | 211 W/m² | - |
| 1778019299 | 28.33° C | 100% | 1004.4 hPa | 0 mm | 1.34 m/s, 159° | 230 W/m² | - |
| 1778019239 | 28.33° C | 100% | 1004.3 hPa | 0 mm | 1.79 m/s, 178° | 230 W/m² | - |
| 1778019179 | 28.33° C | 100% | 1004.3 hPa | 0 mm | 1.79 m/s, 149° | 230 W/m² | - |
| 1778019119 | 28.33° C | 100% | 1004.3 hPa | 0 mm | 1.79 m/s, 109° | 230 W/m² | - |
| 1778019059 | 28.33° C | 100% | 1004.4 hPa | 0 mm | 1.34 m/s, 154° | 230 W/m² | - |
| 1778018998 | 28.33° C | 100% | 1004.4 hPa | 0 mm | 1.34 m/s, 155° | 246 W/m² | - |
| 1778018939 | 28.33° C | 100% | 1004.4 hPa | 0 mm | 1.34 m/s, 161° | 295 W/m² | - |
| 1778018879 | 28.33° C | 100% | 1004.4 hPa | 0 mm | 0.89 m/s, 159° | 295 W/m² | - |
| 1778018818 | 28.33° C | 100% | 1004.4 hPa | 0 mm | 1.79 m/s, 173° | 295 W/m² | - |
* Rain latest hour (hover to see other rain measurements)
** Current wind speed in m/s (hover to see current wind gust speed)